Theta_e
342 342 341 340 339 339 341 342 342 342 342 342 343 340 337 334 333 334 334 334 335 336 339 341 342 341 339 339 340 341 342 343 343 343 345 347 348 348 348 348 348 346
341 342 341 340 339 340 341 342 342 343 343 343 343 341 339 339 338 338 336 336 337 339 342 343 342 341 339 339 338 338 339 339 340 341 343 346 347 348 349 350 349 348
341 342 341 340 339 340 341 342 342 343 343 343 343 342 342 342 342 342 339 338 340 341 342 343 343 342 339 338 338 339 340 341 342 344 345 347 348 349 350 351 351 349
340 341 341 340 339 340 342 343 342 343 343 343 343 343 343 343 343 343 342 342 342 343 343 344 344 342 342 341 341 342 343 344 345 346 347 347 347 348 350 351 351 348
340 341 341 339 338 339 342 343 343 344 344 344 344 343 343 343 343 343 344 343 344 343 345 346 346 345 345 345 344 344 345 345 346 346 345 345 344 345 347 348 348 347
340 341 340 339 339 340 342 343 343 344 344 344 344 343 343 342 342 343 343 343 343 343 344 347 348 347 346 346 346 347 347 347 347 346 344 342 342 343 344 345 346 347
341 341 340 339 339 340 341 342 343 344 344 344 344 343 342 342 342 342 342 342 343 342 342 345 348 348 347 347 347 348 349 348 347 345 342 341 342 344 346 347 348 349
340 341 341 339 339 339 340 340 341 341 343 344 344 343 343 342 342 342 343 342 342 343 343 343 346 349 348 347 347 348 349 348 346 343 341 341 342 345 347 348 349 349
338 340 340 340 339 338 337 337 337 339 342 344 344 344 344 342 342 342 343 343 342 343 344 345 347 349 349 348 348 348 349 349 347 344 342 341 343 346 348 349 349 349
336 338 339 340 340 338 337 335 335 337 341 343 344 344 343 343 342 342 342 343 341 341 345 347 348 349 349 349 348 349 349 349 348 345 343 343 345 347 348 348 348 348
335 335 337 339 339 339 339 338 338 338 340 342 343 343 342 342 342 342 342 342 339 339 345 348 348 349 349 349 349 349 349 349 348 347 347 347 348 348 348 348 348 347
338 334 333 336 337 339 339 339 340 341 341 341 342 342 341 341 341 341 341 340 338 341 345 348 347 348 349 349 349 350 350 349 349 349 349 349 349 349 349 349 348 348
344 339 335 334 334 336 337 338 338 339 340 341 341 341 341 341 341 340 339 339 340 343 346 347 347 348 348 349 349 350 350 349 349 349 350 350 350 350 351 350 350 350
349 347 344 340 336 334 335 336 337 337 337 338 339 339 339 339 339 338 338 339 341 343 346 347 348 348 348 349 349 349 350 350 350 350 350 350 350 350 350 351 350 350
348 349 348 347 345 340 335 334 335 335 336 336 337 337 337 337 338 338 338 339 341 344 345 348 349 349 349 349 349 349 350 350 350 350 350 350 350 350 351 351 351 349
347 348 348 348 349 346 340 334 332 333 334 335 335 336 336 336 337 338 337 338 341 344 345 348 349 349 349 349 349 349 350 350 350 350 350 350 350 350 351 351 350 348
347 347 348 347 348 347 344 339 335 333 333 332 332 333 333 334 335 336 335 335 340 345 346 348 349 349 349 349 348 349 350 350 350 349 350 351 350 349 350 350 349 346
347 348 348 348 348 347 346 344 341 338 336 334 333 332 332 332 332 333 332 333 340 347 348 348 349 349 349 348 348 349 349 350 350 349 350 350 349 348 349 349 348 346
347 348 349 349 349 348 347 347 346 344 342 340 338 337 336 337 336 334 331 333 341 347 348 348 349 348 349 348 348 348 349 350 350 350 350 349 347 348 349 350 349 347
348 348 349 349 350 350 350 350 349 348 347 345 344 342 343 344 344 341 336 335 341 347 348 348 348 348 348 348 348 348 348 349 350 350 350 349 348 348 350 351 350 348
349 349 348 348 349 350 350 350 350 350 349 348 348 347 346 346 347 347 343 339 342 347 348 348 348 348 348 348 348 348 348 348 349 350 350 350 349 349 349 350 348 348
348 348 348 347 347 347 347 348 349 350 349 348 348 349 348 347 347 349 347 345 344 346 347 348 348 348 347 347 347 348 347 347 347 348 350 351 350 349 349 348 347 348
347 347 347 348 348 347 347 346 347 349 349 348 347 348 348 348 348 348 348 348 348 347 347 347 347 347 347 347 347 347 348 346 345 345 348 350 350 350 349 348 347 347
347 347 347 349 349 349 349 348 348 348 348 348 348 347 347 347 348 348 348 348 349 349 348 347 347 347 347 346 346 346 347 347 345 345 345 348 350 351 350 349 348 347
346 347 348 348 349 349 350 350 350 350 349 348 348 347 347 347 348 348 347 348 348 348 349 348 348 347 347 347 346 346 346 346 346 346 345 347 349 351 351 348 346 345
345 346 347 348 349 349 349 349 350 350 350 349 348 348 348 347 347 347 347 347 347 347 347 348 348 348 348 347 346 345 345 345 346 346 346 348 350 351 350 346 343 344
Wind_Speed
26 26 27 28 27 27 26 25 23 22 22 20 17 16 15 15 16 17 18 17 17 17 17 16 15 15 16 16 16 17 17 17 16 15 13 12 12 12 10 9 10 10
27 26 27 28 28 27 27 26 24 22 22 19 17 16 14 13 13 14 15 16 16 16 16 15 14 14 15 15 16 17 17 17 16 15 14 13 13 12 11 11 11 11
27 27 28 29 30 29 29 28 25 23 22 19 18 17 16 15 14 13 13 14 14 15 15 14 13 14 14 15 15 15 16 15 14 13 13 14 13 13 13 13 13 13
27 28 28 29 31 30 30 29 27 25 23 21 19 18 17 16 16 15 13 13 13 13 14 14 13 13 13 13 14 14 14 14 12 13 14 14 15 15 15 15 15 14
26 27 29 30 31 31 31 31 29 27 25 23 21 19 18 17 17 16 15 14 13 13 14 14 14 14 13 12 13 13 13 13 12 13 14 15 15 15 16 16 15 14
25 26 28 30 32 32 32 33 31 29 27 25 22 21 20 18 18 17 17 16 14 13 14 15 15 15 15 14 13 13 13 12 13 14 15 14 14 14 14 14 14 13
25 26 27 29 31 32 33 33 33 31 29 27 25 23 21 19 18 18 17 17 15 15 15 16 16 15 16 16 15 14 13 13 14 14 15 14 14 14 13 12 12 11
23 25 26 28 29 31 33 34 34 32 31 29 27 26 24 22 19 17 17 17 17 16 17 17 18 16 16 17 16 15 15 15 15 14 14 14 14 14 13 12 12 11
22 24 25 26 28 30 32 34 34 33 32 31 29 27 26 24 22 19 18 19 19 18 18 18 18 16 16 17 17 17 16 16 15 15 14 15 15 14 13 13 12 12
22 23 25 26 27 29 30 32 32 32 32 31 30 28 27 26 24 21 20 21 22 21 20 19 18 17 17 17 18 18 18 17 17 15 14 15 15 14 14 13 13 12
23 23 24 26 27 28 29 30 30 31 31 31 30 29 28 27 25 24 23 23 22 22 22 21 19 18 17 17 18 19 19 18 18 16 15 15 15 15 14 14 13 12
22 23 24 25 26 28 29 29 29 30 30 30 30 29 28 27 26 25 24 23 22 22 23 22 20 19 19 18 18 18 18 18 18 17 16 16 16 16 15 15 14 13
21 22 22 23 25 26 27 28 29 30 30 30 30 30 29 28 26 24 23 23 23 24 24 22 21 21 21 20 19 18 18 18 18 18 18 17 17 17 16 16 15 15
24 23 22 22 24 25 26 27 28 29 30 30 30 30 30 29 27 25 23 23 24 25 24 23 22 22 22 22 21 20 20 19 19 19 19 19 19 19 18 17 16 16
26 26 25 23 23 25 26 27 28 29 29 30 31 31 31 30 29 27 25 24 25 26 25 24 23 23 23 23 23 22 22 21 22 22 21 21 21 21 20 18 18 17
26 27 27 25 24 24 26 27 28 29 29 30 31 31 32 31 31 31 29 27 27 27 27 26 25 24 24 24 24 24 24 24 24 24 24 24 25 24 22 20 18 18
27 28 28 27 25 24 26 27 28 29 29 30 30 31 31 32 33 33 32 30 29 29 28 27 26 25 25 24 25 25 26 25 25 26 27 27 27 25 22 19 18 18
29 29 29 30 28 26 25 26 27 28 28 29 30 30 30 31 32 33 32 31 32 31 29 29 28 27 26 26 26 27 28 27 27 28 30 29 26 24 22 20 20 20
30 31 30 31 31 29 28 27 27 27 27 28 28 28 29 30 30 31 31 32 33 32 31 30 29 28 27 26 26 28 29 29 29 30 30 28 26 25 25 24 23 21
30 33 33 33 33 32 32 31 31 30 29 28 28 27 28 29 29 29 30 32 34 34 32 31 30 28 27 26 26 28 29 30 30 31 31 31 30 27 26 26 23 20
28 31 33 35 35 34 34 34 34 34 33 33 31 30 30 30 29 29 30 32 34 35 34 33 31 29 28 27 27 28 29 30 31 31 32 34 31 27 25 24 20 17
25 28 30 32 34 35 35 35 35 36 35 35 35 34 33 32 31 31 30 31 34 35 35 35 33 31 29 29 30 30 30 31 32 33 34 33 28 24 23 22 19 17
22 24 27 28 29 31 32 33 33 34 35 35 35 35 35 35 35 34 33 33 33 35 36 36 35 33 32 31 32 33 33 33 33 34 35 34 30 26 23 22 21 19
16 18 20 21 22 23 26 27 28 29 31 34 36 37 37 37 37 37 37 36 36 36 36 37 37 36 35 35 35 35 35 36 36 36 37 37 34 29 24 24 24 20
12 12 14 15 17 19 21 22 24 25 28 31 34 37 37 36 37 39 40 39 38 37 37 38 39 39 39 38 37 37 37 39 40 40 40 40 38 33 28 28 28 22
13 13 13 13 14 16 17 18 20 22 26 30 32 34 35 35 36 39 40 40 40 39 37 37 38 38 39 39 38 39 41 42 44 44 42 41 40 36 31 29 27 21
Wind_Direction
210 210 210 212 213 215 215 216 218 219 215 214 218 222 223 221 219 224 229 230 231 232 232 233 234 236 236 235 238 243 245 248 253 259 261 262 266 271 276 281 280 270
212 211 210 211 213 215 215 217 220 217 212 216 220 219 219 219 221 226 228 229 231 231 230 230 232 237 238 237 240 245 249 252 255 258 259 258 263 267 270 275 275 270
213 214 212 212 213 214 215 217 220 217 213 218 221 220 220 221 223 227 228 228 229 229 228 228 232 237 239 239 241 246 249 251 253 256 258 259 262 266 268 270 273 277
213 215 215 214 214 214 214 216 219 219 217 220 223 223 222 221 222 225 227 230 231 228 226 227 230 232 235 237 240 242 243 244 250 257 259 260 261 263 265 267 273 279
214 216 217 216 215 215 215 215 217 219 220 222 225 225 224 223 223 226 230 235 238 235 231 230 230 230 232 234 236 239 240 243 251 258 259 260 261 262 263 265 271 275
215 217 218 218 217 217 218 217 218 220 222 224 226 226 226 227 228 231 235 239 244 246 241 235 233 233 234 236 238 242 248 251 256 258 258 259 261 262 262 264 267 269
219 218 218 219 219 218 219 220 221 224 225 227 228 228 229 230 232 235 240 244 249 255 250 239 234 235 237 238 240 245 252 256 258 258 257 256 257 258 257 258 261 265
224 222 219 220 221 221 221 221 223 226 227 228 230 232 232 233 235 239 245 249 253 257 252 240 235 236 238 240 242 246 252 257 258 256 253 251 250 250 250 252 257 261
229 227 224 222 222 222 223 223 224 226 227 228 231 234 236 236 237 241 247 253 257 256 247 236 234 238 240 243 245 248 252 255 256 254 249 246 244 244 245 248 254 258
233 230 228 226 224 223 224 225 226 227 228 229 232 235 237 237 238 242 247 253 256 251 239 232 233 238 242 247 248 249 252 253 254 251 246 243 241 240 242 246 251 254
238 235 233 231 228 226 226 227 228 230 231 231 233 235 237 237 238 242 245 249 250 242 233 232 234 238 243 248 248 248 250 250 249 247 243 241 239 239 241 245 248 252
241 240 237 235 233 231 230 229 230 232 232 233 234 236 236 237 239 240 241 243 240 233 229 232 236 239 244 249 248 245 246 246 244 242 241 239 237 238 241 244 247 251
242 242 241 241 239 237 235 235 234 233 233 234 236 236 237 239 239 238 237 238 234 229 229 232 237 240 243 248 247 244 243 241 238 238 239 238 237 238 241 245 249 253
244 245 245 245 244 241 240 239 238 237 236 237 238 239 239 240 241 240 239 239 237 233 231 231 235 239 242 244 245 243 241 238 236 237 238 238 239 240 243 246 250 252
244 245 246 247 246 244 241 239 239 239 239 239 240 240 241 242 243 244 244 243 239 235 232 230 233 239 242 242 243 242 240 239 238 238 239 240 241 241 242 246 248 247
243 241 242 243 243 241 239 238 237 238 239 240 240 241 241 242 244 246 246 245 240 235 232 231 234 239 242 242 242 240 238 239 240 241 242 243 242 240 238 238 240 240
247 243 239 238 238 237 236 235 234 235 237 238 239 241 241 242 243 245 246 244 238 233 231 232 236 239 242 243 242 238 237 238 240 242 244 245 245 243 240 238 237 236
250 247 244 240 239 238 237 236 235 234 234 235 238 239 240 241 241 242 243 240 235 232 232 234 237 241 244 244 242 239 237 237 239 244 247 249 250 247 242 239 237 237
251 250 248 245 243 241 240 240 239 237 234 233 235 236 238 239 238 239 240 236 232 231 232 236 239 242 244 244 242 239 238 238 241 245 248 249 249 246 239 234 235 237
254 254 253 251 249 246 245 245 244 243 240 238 237 236 236 236 235 237 237 234 232 232 234 238 241 242 242 244 243 240 238 241 243 246 250 250 247 243 237 234 235 235
253 255 256 255 253 250 249 248 248 247 246 246 245 242 239 236 234 235 236 235 233 233 237 240 241 242 244 245 244 241 239 241 243 246 251 247 240 236 235 236 237 234
251 252 253 254 253 252 251 251 251 250 249 249 250 249 245 240 236 235 235 235 235 236 239 242 241 242 244 247 247 243 239 240 243 246 248 242 235 234 235 235 235 232
255 254 254 254 254 253 253 254 254 252 249 250 252 253 251 246 241 239 237 237 238 239 240 242 243 243 245 248 250 247 240 237 239 244 248 247 242 238 237 234 229 222
261 260 260 260 259 258 257 258 259 257 253 250 250 252 252 249 245 243 243 244 246 245 244 245 245 246 248 250 252 252 246 240 238 239 243 245 240 235 234 231 218 207
264 264 264 265 265 263 261 261 262 261 258 252 248 248 250 249 246 244 245 247 250 251 250 250 250 250 251 252 253 253 249 242 239 236 236 237 235 233 229 215 200 193
267 264 263 263 263 261 261 262 261 260 257 253 250 248 249 249 247 246 247 249 251 252 252 252 252 251 251 252 253 254 251 246 241 236 233 232 228 223 216 203 189 189